[[{"header":{"parameterUnit":"m.s-1","parameterCategory":1,"la1":30.2992,"la2":30.254,"lo1":-89.0895,"lo2":-89.0443,"dy":0.0025,"dx":0.0025,"nx":19,"ny":19,"refTime":"2026-03-11T21:00:00:Z","depth":0,"parameterNumber":2,"parameterNumberName":"U-component_of_WINDS"},"data":[0,0,0,2.8627,2.8629,2.8675,2.8675,2.8741,2.8742,0,0,0,0,0,0,0,0,0,0,0,2.8619,2.862,2.8627,2.8629,2.8675,2.8675,2.8741,2.8742,0,0,0,0,0,0,0,0,0,0,0,2.8619,2.862,2.8621,2.8629,2.8675,2.8675,2.8741,2.8703,0,0,0,0,0,0,0,0,0,0,2.8657,2.8655,2.862,2.8621,2.8629,2.8674,2.8675,2.8702,2.8706,2.8724,0,2.8743,0,2.8744,2.8747,2.8747,0,0,0,2.8624,2.8652,2.8659,2.8621,2.863,2.8674,2.8653,2.8704,2.8709,2.873,2.8744,2.8746,2.8745,2.8748,2.8748,2.8873,2.8874,0,0,2.8622,2.863,2.8656,2.8663,2.8657,2.8651,2.8654,2.8707,2.8722,2.8744,2.8747,2.8746,2.8748,2.8749,2.8872,2.8873,0,0,0,2.8617,2.8629,2.8635,2.866,2.8668,2.8653,2.8656,2.8719,2.8721,2.8748,2.8747,2.8749,2.875,2.8871,2.8872,2.8921,0,0,0,2.8616,2.8626,2.8634,2.8639,2.8667,2.8694,2.8668,2.8717,2.8723,2.8747,2.8749,2.875,2.887,2.8872,2.8917,2.8942,0,0,0,2.8614,2.8626,2.8634,2.864,2.866,2.8693,2.8698,2.8718,2.8722,2.8748,2.8751,2.887,2.8872,2.8915,2.8937,2.8978,0,0,0,2.8615,2.8675,2.8635,2.8702,2.866,2.8723,2.8697,2.8744,2.8771,2.8749,2.887,2.8872,2.8914,2.8934,2.8975,2.9014,2.9031,0,0,2.8695,2.8685,2.8724,2.869,2.8763,2.8716,2.8795,2.8812,2.8805,2.8851,2.8854,2.8919,2.8937,2.8977,2.9124,2.9137,0,0,0,2.8752,2.878,2.8798,2.8825,2.884,2.8856,2.8859,2.8866,2.8904,2.8831,2.8944,2.8954,2.8978,2.8996,2.9008,2.9028,2.8881,2.8881,2.8881,2.8877,2.8868,2.8932,2.8929,2.8956,2.8961,2.8982,2.8991,2.8972,2.8999,2.9012,2.9102,2.9124,2.9133,2.9154,2.9032,2.9032,2.9032,2.9033,2.8994,2.9033,2.9009,2.9063,2.9053,2.9097,2.9104,2.909,2.913,2.9091,2.9111,2.907,2.9148,2.9166,2.9036,2.9035,2.9035,2.9035,2.9034,2.9075,2.9092,2.91,2.9141,2.9173,2.9167,2.9208,2.9197,2.9187,2.9207,2.922,2.9219,2.9217,2.9214,2.9214,2.9215,2.9215,2.9215,2.9215,2.9155,2.9163,2.9199,2.9222,2.924,2.9261,2.9268,2.9285,2.93,2.9289,2.9289,2.9268,2.9158,2.913,2.922,2.9219,2.9219,2.9218,2.9218,2.9277,2.9249,2.9304,2.9322,2.9349,2.9383,2.9369,2.9405,2.9416,2.9437,2.9413,2.9333,2.9321,2.9312,2.9289,2.9414,2.9414,2.9414,2.9414,2.9346,2.9339,2.9395,2.9424,2.9452,2.9446,2.9509,2.9516,2.9518,2.9525,2.9505,2.9474,2.9465,2.9459,2.9446,2.9425,2.9582,2.9582,2.9582,2.9421,2.9417,2.9473,2.9476,2.9498,2.9516,2.9576,2.961,2.9606,2.9589,2.953,2.9523,2.9473,2.9457,2.9437,2.9418,2.9379,0,0]},{"header":{"parameterUnit":"m.s-1","parameterCategory":1,"la1":30.2992,"la2":30.254,"lo1":-89.0895,"lo2":-89.0443,"dy":0.0025,"dx":0.0025,"nx":19,"ny":19,"refTime":"2026-03-11T21:00:00:Z","depth":0,"parameterNumber":3,"parameterNumberName":"V-component_of_WINDS"},"data":[0,0,0,-9.2635,-9.2638,-9.2797,-9.2797,-9.3015,-9.3017,0,0,0,0,0,0,0,0,0,0,0,-9.2599,-9.26,-9.2634,-9.2639,-9.2797,-9.2797,-9.3015,-9.3017,0,0,0,0,0,0,0,0,0,0,0,-9.2598,-9.26,-9.2602,-9.2639,-9.2797,-9.2797,-9.3014,-9.2889,0,0,0,0,0,0,0,0,0,0,-9.2732,-9.271,-9.2599,-9.2602,-9.264,-9.2796,-9.2797,-9.2882,-9.2897,-9.2951,0,-9.3003,0,-9.3014,-9.3033,-9.3034,0,0,0,-9.2629,-9.2698,-9.2732,-9.2603,-9.2642,-9.2796,-9.2723,-9.289,-9.2906,-9.297,-9.3006,-9.3014,-9.3018,-9.3035,-9.3036,-9.3387,-9.3389,0,0,-9.262,-9.2632,-9.2721,-9.2743,-9.2722,-9.2718,-9.2728,-9.29,-9.2939,-9.3007,-9.3019,-9.3022,-9.3036,-9.3038,-9.3385,-9.3388,0,0,0,-9.2602,-9.2626,-9.2655,-9.2734,-9.2762,-9.2722,-9.2734,-9.2932,-9.294,-9.3021,-9.3024,-9.3038,-9.304,-9.3383,-9.3386,-9.3503,0,0,0,-9.2596,-9.2615,-9.2652,-9.266,-9.2759,-9.2849,-9.2762,-9.2928,-9.2947,-9.3023,-9.3038,-9.3043,-9.3381,-9.3385,-9.3495,-9.3556,0,0,0,-9.2584,-9.2613,-9.2641,-9.266,-9.2729,-9.2846,-9.2864,-9.2932,-9.295,-9.3034,-9.3043,-9.3379,-9.3384,-9.3488,-9.3544,-9.3655,0,0,0,-9.2574,-9.2738,-9.2643,-9.2827,-9.2728,-9.2918,-9.2863,-9.3002,-9.3088,-9.3039,-9.3381,-9.3386,-9.3485,-9.3536,-9.3647,-9.3751,-9.3795,0,0,-9.2787,-9.2763,-9.2871,-9.2791,-9.3002,-9.2893,-9.3119,-9.3184,-9.3179,-9.3318,-9.3326,-9.3498,-9.3543,-9.3653,-9.4037,-9.4072,0,0,0,-9.2943,-9.3021,-9.3074,-9.3159,-9.3216,-9.3271,-9.3302,-9.3327,-9.3445,-9.3254,-9.3566,-9.3593,-9.3657,-9.3706,-9.3736,-9.3792,-9.3409,-9.3408,-9.3408,-9.3258,-9.3249,-9.3428,-9.3439,-9.3522,-9.3556,-9.3622,-9.3662,-9.3622,-9.3697,-9.3738,-9.3973,-9.4031,-9.4053,-9.4111,-9.3791,-9.3791,-9.3792,-9.3792,-9.357,-9.368,-9.3632,-9.3788,-9.3778,-9.3908,-9.3948,-9.3917,-9.4037,-9.3939,-9.3995,-9.3891,-9.4093,-9.4143,-9.3801,-9.3799,-9.3798,-9.3797,-9.3797,-9.3776,-9.3828,-9.3859,-9.3986,-9.4085,-9.4089,-9.4209,-9.4193,-9.4178,-9.4233,-9.4277,-9.4275,-9.4273,-9.4256,-9.4256,-9.4257,-9.4258,-9.4259,-9.4259,-9.3978,-9.401,-9.4115,-9.4196,-9.4251,-9.4322,-9.4362,-9.4415,-9.4471,-9.4449,-9.445,-9.4406,-9.4114,-9.4042,-9.4272,-9.4269,-9.4268,-9.4267,-9.4266,-9.4299,-9.4226,-9.4388,-9.4445,-9.454,-9.4642,-9.4622,-9.4734,-9.4776,-9.4836,-9.4782,-9.4569,-9.4542,-9.4518,-9.4459,-9.4782,-9.4782,-9.4782,-9.4782,-9.4475,-9.4462,-9.4627,-9.472,-9.4809,-9.4809,-9.4994,-9.5028,-9.505,-9.5076,-9.5027,-9.4947,-9.4923,-9.4911,-9.4878,-9.4822,-9.5231,-9.5232,-9.5232,-9.4673,-9.467,-9.483,-9.4856,-9.4931,-9.4996,-9.517,-9.5278,-9.5287,-9.525,-9.5097,-9.5078,-9.4948,-9.4905,-9.4863,-9.4812,-9.471,0,0]}]]